owner,sensor,date,latitude,longitude,vertical_datum,sea_water_practical_salinity,qcFlag 
SCCF RECON,ioos:station:SCCF:13:1,2008-03-01T00:00:00Z,26.5255,-82.0032,2.39,35.93,1111122 
SCCF RECON,ioos:station:SCCF:13:1,2008-03-01T01:00:00Z,26.5255,-82.0032,2.34,35.99,1111122 
SCCF RECON,ioos:station:SCCF:13:1,2008-03-01T02:00:00Z,26.5255,-82.0032,2.276,35.91,1111122 
SCCF RECON,ioos:station:SCCF:13:1,2008-03-01T03:00:00Z,26.5255,-82.0032,2.22,36.0,1111122 
SCCF RECON,ioos:station:SCCF:13:1,2008-03-01T04:00:00Z,26.5255,-82.0032,2.16,35.62,1111122 
SCCF RECON,ioos:station:SCCF:13:1,2008-03-01T05:00:00Z,26.5255,-82.0032,2.1,34.89,1111122 
SCCF RECON,ioos:station:SCCF:13:1,2008-03-01T06:00:00Z,26.5255,-82.0032,2.04,34.78,1111122 
SCCF RECON,ioos:station:SCCF:13:1,2008-03-01T07:00:00Z,26.5255,-82.0032,1.988,34.74,1111122 
SCCF RECON,ioos:station:SCCF:13:1,2008-03-01T08:00:00Z,26.5255,-82.0032,1.93,34.4,1111122 
SCCF RECON,ioos:station:SCCF:13:1,2008-03-01T09:00:00Z,26.5255,-82.0032,1.91,33.72,1111122 
SCCF RECON,ioos:station:SCCF:13:1,2008-03-01T10:00:00Z,26.5255,-82.0032,1.931,33.23,1111122 
SCCF RECON,ioos:station:SCCF:13:1,2008-03-01T11:00:00Z,26.5255,-82.0032,1.97,32.93,1111122 
SCCF RECON,ioos:station:SCCF:13:1,2008-03-01T12:00:00Z,26.5255,-82.0032,2.021,32.82,1111122 
SCCF RECON,ioos:station:SCCF:13:1,2008-03-01T13:00:00Z,26.5255,-82.0032,2.089,32.89,1111122 
SCCF RECON,ioos:station:SCCF:13:1,2008-03-01T14:00:00Z,26.5255,-82.0032,2.13,33.81,1111122 
SCCF RECON,ioos:station:SCCF:13:1,2008-03-01T15:00:00Z,26.5255,-82.0032,2.17,34.19,1111122 
SCCF RECON,ioos:station:SCCF:13:1,2008-03-01T16:00:00Z,26.5255,-82.0032,2.2,34.64,1111122 
SCCF RECON,ioos:station:SCCF:13:1,2008-03-01T17:00:00Z,26.5255,-82.0032,2.22,35.21,1111122 
SCCF RECON,ioos:station:SCCF:13:1,2008-03-01T18:00:00Z,26.5255,-82.0032,2.22,35.65,1111122 
SCCF RECON,ioos:station:SCCF:13:1,2008-03-01T19:00:00Z,26.5255,-82.0032,2.22,35.82,1111122 
SCCF RECON,ioos:station:SCCF:13:1,2008-03-01T20:00:00Z,26.5255,-82.0032,2.23,35.88,1111122 
SCCF RECON,ioos:station:SCCF:13:1,2008-03-01T21:00:00Z,26.5255,-82.0032,2.245,35.9,1111122 
SCCF RECON,ioos:station:SCCF:13:1,2008-03-01T22:00:00Z,26.5255,-82.0032,2.29,35.79,1111122 
SCCF RECON,ioos:station:SCCF:13:1,2008-03-01T23:00:00Z,26.5255,-82.0032,2.329,35.8,1111122 
SCCF RECON,ioos:station:SCCF:13:1,2008-03-02T00:00:00Z,26.5255,-82.0032,2.34,35.88,1111122 
SCCF RECON,ioos:station:SCCF:13:1,2008-03-02T01:00:00Z,26.5255,-82.0032,2.33,35.96,1111122 
SCCF RECON,ioos:station:SCCF:13:1,2008-03-02T02:00:00Z,26.5255,-82.0032,2.31,35.98,1111122 
SCCF RECON,ioos:station:SCCF:13:1,2008-03-02T03:00:00Z,26.5255,-82.0032,2.27,36.03,1111122 
SCCF RECON,ioos:station:SCCF:13:1,2008-03-02T04:00:00Z,26.5255,-82.0032,2.21,35.8,1111122 
SCCF RECON,ioos:station:SCCF:13:1,2008-03-02T05:00:00Z,26.5255,-82.0032,2.15,35.56,1111122 
SCCF RECON,ioos:station:SCCF:13:1,2008-03-02T06:00:00Z,26.5255,-82.0032,2.09,35.5,1111122 
SCCF RECON,ioos:station:SCCF:13:1,2008-03-02T07:00:00Z,26.5255,-82.0032,2.023,35.16,1111122 
SCCF RECON,ioos:station:SCCF:13:1,2008-03-02T08:00:00Z,26.5255,-82.0032,1.95,34.71,1111122 
SCCF RECON,ioos:station:SCCF:13:1,2008-03-02T09:00:00Z,26.5255,-82.0032,1.89,34.06,1111122 
SCCF RECON,ioos:station:SCCF:13:1,2008-03-02T10:00:00Z,26.5255,-82.0032,1.86,33.58,1111122 
SCCF RECON,ioos:station:SCCF:13:1,2008-03-02T11:00:00Z,26.5255,-82.0032,1.88,33.09,1111122 
SCCF RECON,ioos:station:SCCF:13:1,2008-03-02T12:00:00Z,26.5255,-82.0032,1.95,32.81,1111122 
SCCF RECON,ioos:station:SCCF:13:1,2008-03-02T13:00:00Z,26.5255,-82.0032,2.018,32.6,1111122 
SCCF RECON,ioos:station:SCCF:13:1,2008-03-02T14:00:00Z,26.5255,-82.0032,2.07,32.75,1111122 
SCCF RECON,ioos:station:SCCF:13:1,2008-03-02T15:00:00Z,26.5255,-82.0032,2.128,33.87,1111122 
SCCF RECON,ioos:station:SCCF:13:1,2008-03-02T16:00:00Z,26.5255,-82.0032,2.162,34.32,1111122 
SCCF RECON,ioos:station:SCCF:13:1,2008-03-02T17:00:00Z,26.5255,-82.0032,2.174,34.94,1111122 
SCCF RECON,ioos:station:SCCF:13:1,2008-03-02T18:00:00Z,26.5255,-82.0032,2.16,35.36,1111122 
SCCF RECON,ioos:station:SCCF:13:1,2008-03-02T19:00:00Z,26.5255,-82.0032,2.163,35.6,1111122 
SCCF RECON,ioos:station:SCCF:13:1,2008-03-02T20:00:00Z,26.5255,-82.0032,2.172,35.64,1111122 
SCCF RECON,ioos:station:SCCF:13:1,2008-03-02T21:00:00Z,26.5255,-82.0032,2.189,35.76,1111122 
SCCF RECON,ioos:station:SCCF:13:1,2008-03-02T22:00:00Z,26.5255,-82.0032,2.23,35.77,1111122 
SCCF RECON,ioos:station:SCCF:13:1,2008-03-02T23:00:00Z,26.5255,-82.0032,2.28,35.78,1111122 
SCCF RECON,ioos:station:SCCF:13:1,2008-03-03T00:00:00Z,26.5255,-82.0032,2.329,35.87,1111122 
SCCF RECON,ioos:station:SCCF:13:1,2008-03-03T01:00:00Z,26.5255,-82.0032,2.37,35.97,1111122 
SCCF RECON,ioos:station:SCCF:13:1,2008-03-03T02:00:00Z,26.5255,-82.0032,2.37,35.98,1111122 
SCCF RECON,ioos:station:SCCF:13:1,2008-03-03T03:00:00Z,26.5255,-82.0032,2.34,35.98,1111122 
SCCF RECON,ioos:station:SCCF:13:1,2008-03-03T04:00:00Z,26.5255,-82.0032,2.3,35.98,1111122 
SCCF RECON,ioos:station:SCCF:13:1,2008-03-03T05:00:00Z,26.5255,-82.0032,2.23,35.99,1111122 
SCCF RECON,ioos:station:SCCF:13:1,2008-03-03T06:00:00Z,26.5255,-82.0032,2.16,35.98,1111122 
SCCF RECON,ioos:station:SCCF:13:1,2008-03-03T07:00:00Z,26.5255,-82.0032,2.08,35.2,1111122 
SCCF RECON,ioos:station:SCCF:13:1,2008-03-03T08:00:00Z,26.5255,-82.0032,2.01,34.7,1111122 
SCCF RECON,ioos:station:SCCF:13:1,2008-03-03T09:00:00Z,26.5255,-82.0032,1.95,34.93,1111122 
SCCF RECON,ioos:station:SCCF:13:1,2008-03-03T10:00:00Z,26.5255,-82.0032,1.91,34.56,1111122 
SCCF RECON,ioos:station:SCCF:13:1,2008-03-03T11:00:00Z,26.5255,-82.0032,1.939,34.07,1111122 
SCCF RECON,ioos:station:SCCF:13:1,2008-03-03T12:00:00Z,26.5255,-82.0032,1.99,33.42,1111122 
SCCF RECON,ioos:station:SCCF:13:1,2008-03-03T13:00:00Z,26.5255,-82.0032,2.07,33.23,1111122 
SCCF RECON,ioos:station:SCCF:13:1,2008-03-03T14:00:00Z,26.5255,-82.0032,2.14,33.56,1111122 
SCCF RECON,ioos:station:SCCF:13:1,2008-03-03T15:00:00Z,26.5255,-82.0032,2.2,34.36,1111122 
SCCF RECON,ioos:station:SCCF:13:1,2008-03-03T16:00:00Z,26.5255,-82.0032,2.25,34.82,1111122 
SCCF RECON,ioos:station:SCCF:13:1,2008-03-03T17:00:00Z,26.5255,-82.0032,2.278,35.36,1111122 
SCCF RECON,ioos:station:SCCF:13:1,2008-03-03T18:00:00Z,26.5255,-82.0032,2.27,35.89,1111122 
SCCF RECON,ioos:station:SCCF:13:1,2008-03-03T19:00:00Z,26.5255,-82.0032,2.25,36.14,1111122 
SCCF RECON,ioos:station:SCCF:13:1,2008-03-03T20:00:00Z,26.5255,-82.0032,2.23,36.13,1111122 
SCCF RECON,ioos:station:SCCF:13:1,2008-03-03T21:00:00Z,26.5255,-82.0032,2.24,36.14,1111122 
SCCF RECON,ioos:station:SCCF:13:1,2008-03-03T22:00:00Z,26.5255,-82.0032,2.253,36.13,1111122 
SCCF RECON,ioos:station:SCCF:13:1,2008-03-03T23:00:00Z,26.5255,-82.0032,2.31,36.15,1111122 
SCCF RECON,ioos:station:SCCF:13:1,2008-03-04T00:00:00Z,26.5255,-82.0032,2.37,36.21,1111122 
SCCF RECON,ioos:station:SCCF:13:1,2008-03-04T01:00:00Z,26.5255,-82.0032,2.42,36.25,1111122 
SCCF RECON,ioos:station:SCCF:13:1,2008-03-04T02:00:00Z,26.5255,-82.0032,2.47,36.33,1111122 
SCCF RECON,ioos:station:SCCF:13:1,2008-03-04T03:00:00Z,26.5255,-82.0032,2.488,36.38,1111122 
SCCF RECON,ioos:station:SCCF:13:1,2008-03-04T04:00:00Z,26.5255,-82.0032,2.48,36.38,1111122 
SCCF RECON,ioos:station:SCCF:13:1,2008-03-04T05:00:00Z,26.5255,-82.0032,2.43,36.38,1111122 
SCCF RECON,ioos:station:SCCF:13:1,2008-03-04T06:00:00Z,26.5255,-82.0032,2.34,36.38,1111122 
SCCF RECON,ioos:station:SCCF:13:1,2008-03-04T07:00:00Z,26.5255,-82.0032,2.25,36.35,1111122 
SCCF RECON,ioos:station:SCCF:13:1,2008-03-04T08:00:00Z,26.5255,-82.0032,2.16,36.11,1111122 
SCCF RECON,ioos:station:SCCF:13:1,2008-03-04T09:00:00Z,26.5255,-82.0032,2.08,35.8,1111122 
SCCF RECON,ioos:station:SCCF:13:1,2008-03-04T10:00:00Z,26.5255,-82.0032,2.01,35.68,1111122 
SCCF RECON,ioos:station:SCCF:13:1,2008-03-04T11:00:00Z,26.5255,-82.0032,1.98,35.43,1111122 
SCCF RECON,ioos:station:SCCF:13:1,2008-03-04T12:00:00Z,26.5255,-82.0032,2.03,35.24,1111122 
SCCF RECON,ioos:station:SCCF:13:1,2008-03-04T13:00:00Z,26.5255,-82.0032,2.12,34.96,1111122 
SCCF RECON,ioos:station:SCCF:13:1,2008-03-04T14:00:00Z,26.5255,-82.0032,2.18,34.84,1111122 
SCCF RECON,ioos:station:SCCF:13:1,2008-03-04T15:00:00Z,26.5255,-82.0032,2.24,35.33,1111122 
SCCF RECON,ioos:station:SCCF:13:1,2008-03-04T16:00:00Z,26.5255,-82.0032,2.318,35.56,1111122 
SCCF RECON,ioos:station:SCCF:13:1,2008-03-04T17:00:00Z,26.5255,-82.0032,2.35,35.86,1111122 
SCCF RECON,ioos:station:SCCF:13:1,2008-03-04T18:00:00Z,26.5255,-82.0032,2.36,36.22,1111122 
SCCF RECON,ioos:station:SCCF:13:1,2008-03-04T19:00:00Z,26.5255,-82.0032,2.35,36.42,1111122 
SCCF RECON,ioos:station:SCCF:13:1,2008-03-04T20:00:00Z,26.5255,-82.0032,2.32,36.42,1111122 
SCCF RECON,ioos:station:SCCF:13:1,2008-03-04T21:00:00Z,26.5255,-82.0032,2.27,36.42,1111122 
SCCF RECON,ioos:station:SCCF:13:1,2008-03-04T22:00:00Z,26.5255,-82.0032,2.23,36.37,1111122 
SCCF RECON,ioos:station:SCCF:13:1,2008-03-04T23:00:00Z,26.5255,-82.0032,2.218,36.37,1111122 
SCCF RECON,ioos:station:SCCF:13:1,2008-03-05T00:00:00Z,26.5255,-82.0032,2.289,36.32,1111122 
SCCF RECON,ioos:station:SCCF:13:1,2008-03-05T01:00:00Z,26.5255,-82.0032,2.37,36.39,1111122 
SCCF RECON,ioos:station:SCCF:13:1,2008-03-05T02:00:00Z,26.5255,-82.0032,2.459,36.42,1111122 
SCCF RECON,ioos:station:SCCF:13:1,2008-03-05T03:00:00Z,26.5255,-82.0032,2.51,36.38,1111122 
SCCF RECON,ioos:station:SCCF:13:1,2008-03-05T04:00:00Z,26.5255,-82.0032,2.516,36.47,1111122 
SCCF RECON,ioos:station:SCCF:13:1,2008-03-05T05:00:00Z,26.5255,-82.0032,2.5,36.54,1111122 
SCCF RECON,ioos:station:SCCF:13:1,2008-03-05T06:00:00Z,26.5255,-82.0032,2.44,36.61,1111122 
SCCF RECON,ioos:station:SCCF:13:1,2008-03-05T07:00:00Z,26.5255,-82.0032,2.34,36.59,1111122 
SCCF RECON,ioos:station:SCCF:13:1,2008-03-05T08:00:00Z,26.5255,-82.0032,2.26,36.48,1111122 
SCCF RECON,ioos:station:SCCF:13:1,2008-03-05T09:00:00Z,26.5255,-82.0032,2.19,36.41,1111122 
SCCF RECON,ioos:station:SCCF:13:1,2008-03-05T10:00:00Z,26.5255,-82.0032,2.11,36.28,1111122 
SCCF RECON,ioos:station:SCCF:13:1,2008-03-05T11:00:00Z,26.5255,-82.0032,2.04,36.0,1111122 
SCCF RECON,ioos:station:SCCF:13:1,2008-03-05T12:00:00Z,26.5255,-82.0032,2.01,35.85,1111122 
SCCF RECON,ioos:station:SCCF:13:1,2008-03-05T13:00:00Z,26.5255,-82.0032,2.04,35.41,1111122 
SCCF RECON,ioos:station:SCCF:13:1,2008-03-05T14:00:00Z,26.5255,-82.0032,2.16,35.13,1111122 
SCCF RECON,ioos:station:SCCF:13:1,2008-03-05T15:00:00Z,26.5255,-82.0032,2.25,34.97,1111122 
SCCF RECON,ioos:station:SCCF:13:1,2008-03-05T16:00:00Z,26.5255,-82.0032,2.32,35.69,1111122 
SCCF RECON,ioos:station:SCCF:13:1,2008-03-05T17:00:00Z,26.5255,-82.0032,2.377,35.93,1111122 
SCCF RECON,ioos:station:SCCF:13:1,2008-03-05T18:00:00Z,26.5255,-82.0032,2.409,36.12,1111122 
SCCF RECON,ioos:station:SCCF:13:1,2008-03-05T19:00:00Z,26.5255,-82.0032,2.38,36.44,1111122 
SCCF RECON,ioos:station:SCCF:13:1,2008-03-05T20:00:00Z,26.5255,-82.0032,2.284,36.58,1111122 
SCCF RECON,ioos:station:SCCF:13:1,2008-03-05T21:00:00Z,26.5255,-82.0032,2.23,36.54,1111122 
SCCF RECON,ioos:station:SCCF:13:1,2008-03-05T22:00:00Z,26.5255,-82.0032,2.19,36.38,1111122 
SCCF RECON,ioos:station:SCCF:13:1,2008-03-05T23:00:00Z,26.5255,-82.0032,2.17,36.01,1111122 
SCCF RECON,ioos:station:SCCF:13:1,2008-03-06T00:00:00Z,26.5255,-82.0032,2.2,36.07,1111122 
SCCF RECON,ioos:station:SCCF:13:1,2008-03-06T01:00:00Z,26.5255,-82.0032,2.29,35.84,1111122 
SCCF RECON,ioos:station:SCCF:13:1,2008-03-06T02:00:00Z,26.5255,-82.0032,2.37,36.09,1111122 
SCCF RECON,ioos:station:SCCF:13:1,2008-03-06T03:00:00Z,26.5255,-82.0032,2.42,36.06,1111122 
SCCF RECON,ioos:station:SCCF:13:1,2008-03-06T04:00:00Z,26.5255,-82.0032,2.46,36.24,1111122 
SCCF RECON,ioos:station:SCCF:13:1,2008-03-06T05:00:00Z,26.5255,-82.0032,2.48,36.3,1111122 
SCCF RECON,ioos:station:SCCF:13:1,2008-03-06T06:00:00Z,26.5255,-82.0032,2.46,36.38,1111122 
SCCF RECON,ioos:station:SCCF:13:1,2008-03-06T07:00:00Z,26.5255,-82.0032,2.37,36.44,1111122 
SCCF RECON,ioos:station:SCCF:13:1,2008-03-06T08:00:00Z,26.5255,-82.0032,2.27,36.41,1111122 
SCCF RECON,ioos:station:SCCF:13:1,2008-03-06T09:00:00Z,26.5255,-82.0032,2.18,36.22,1111122 
SCCF RECON,ioos:station:SCCF:13:1,2008-03-06T10:00:00Z,26.5255,-82.0032,2.091,36.11,1111122 
SCCF RECON,ioos:station:SCCF:13:1,2008-03-06T11:00:00Z,26.5255,-82.0032,2.03,35.69,1111122 
SCCF RECON,ioos:station:SCCF:13:1,2008-03-06T12:00:00Z,26.5255,-82.0032,1.97,35.17,1111122 
SCCF RECON,ioos:station:SCCF:13:1,2008-03-06T13:00:00Z,26.5255,-82.0032,1.98,34.78,1111122 
SCCF RECON,ioos:station:SCCF:13:1,2008-03-06T14:00:00Z,26.5255,-82.0032,2.09,34.55,1111122 
SCCF RECON,ioos:station:SCCF:13:1,2008-03-06T15:00:00Z,26.5255,-82.0032,2.21,34.31,1111122 
SCCF RECON,ioos:station:SCCF:13:1,2008-03-06T16:00:00Z,26.5255,-82.0032,2.28,35.05,1111122 
SCCF RECON,ioos:station:SCCF:13:1,2008-03-06T17:00:00Z,26.5255,-82.0032,2.33,35.32,1111122 
SCCF RECON,ioos:station:SCCF:13:1,2008-03-06T18:00:00Z,26.5255,-82.0032,2.36,36.03,1111122 
SCCF RECON,ioos:station:SCCF:13:1,2008-03-06T19:00:00Z,26.5255,-82.0032,2.35,36.34,1111122 
SCCF RECON,ioos:station:SCCF:13:1,2008-03-06T20:00:00Z,26.5255,-82.0032,2.26,36.46,1111122 
SCCF RECON,ioos:station:SCCF:13:1,2008-03-06T21:00:00Z,26.5255,-82.0032,2.176,36.33,1111122 
SCCF RECON,ioos:station:SCCF:13:1,2008-03-06T22:00:00Z,26.5255,-82.0032,2.143,36.42,1111122 
SCCF RECON,ioos:station:SCCF:13:1,2008-03-06T23:00:00Z,26.5255,-82.0032,2.11,36.19,1111122 
SCCF RECON,ioos:station:SCCF:13:1,2008-03-07T00:00:00Z,26.5255,-82.0032,2.11,35.85,1111122 
SCCF RECON,ioos:station:SCCF:13:1,2008-03-07T01:00:00Z,26.5255,-82.0032,2.19,35.43,1111122 
SCCF RECON,ioos:station:SCCF:13:1,2008-03-07T02:00:00Z,26.5255,-82.0032,2.29,35.45,1111122 
SCCF RECON,ioos:station:SCCF:13:1,2008-03-07T03:00:00Z,26.5255,-82.0032,2.37,35.78,1111122 
SCCF RECON,ioos:station:SCCF:13:1,2008-03-07T04:00:00Z,26.5255,-82.0032,2.439,36.21,1111122 
SCCF RECON,ioos:station:SCCF:13:1,2008-03-07T05:00:00Z,26.5255,-82.0032,2.49,36.39,1111122 
SCCF RECON,ioos:station:SCCF:13:1,2008-03-07T06:00:00Z,26.5255,-82.0032,2.51,36.5,1111122 
SCCF RECON,ioos:station:SCCF:13:1,2008-03-07T07:00:00Z,26.5255,-82.0032,2.43,36.54,1111122 
SCCF RECON,ioos:station:SCCF:13:1,2008-03-07T08:00:00Z,26.5255,-82.0032,2.33,36.53,1111122 
SCCF RECON,ioos:station:SCCF:13:1,2008-03-07T09:00:00Z,26.5255,-82.0032,2.24,36.55,1111122 
SCCF RECON,ioos:station:SCCF:13:1,2008-03-07T10:00:00Z,26.5255,-82.0032,2.17,36.46,1111122 
SCCF RECON,ioos:station:SCCF:13:1,2008-03-07T11:00:00Z,26.5255,-82.0032,2.09,36.35,1111122 
SCCF RECON,ioos:station:SCCF:13:1,2008-03-07T12:00:00Z,26.5255,-82.0032,2.016,35.8,1111122 
SCCF RECON,ioos:station:SCCF:13:1,2008-03-07T13:00:00Z,26.5255,-82.0032,1.988,35.54,1111122 
SCCF RECON,ioos:station:SCCF:13:1,2008-03-07T14:00:00Z,26.5255,-82.0032,2.083,35.09,1111122 
SCCF RECON,ioos:station:SCCF:13:1,2008-03-07T15:00:00Z,26.5255,-82.0032,2.211,35.18,1111122 
SCCF RECON,ioos:station:SCCF:13:1,2008-03-07T16:00:00Z,26.5255,-82.0032,2.307,35.82,1111122 
SCCF RECON,ioos:station:SCCF:13:1,2008-03-07T17:00:00Z,26.5255,-82.0032,2.393,36.13,1111122 
SCCF RECON,ioos:station:SCCF:13:1,2008-03-07T18:00:00Z,26.5255,-82.0032,2.449,36.65,1111122 
SCCF RECON,ioos:station:SCCF:13:1,2008-03-07T19:00:00Z,26.5255,-82.0032,2.455,36.77,1111122 
SCCF RECON,ioos:station:SCCF:13:1,2008-03-07T20:00:00Z,26.5255,-82.0032,2.397,36.72,1111122 
SCCF RECON,ioos:station:SCCF:13:1,2008-03-07T21:00:00Z,26.5255,-82.0032,2.27,36.72,1111122 
SCCF RECON,ioos:station:SCCF:13:1,2008-03-07T22:00:00Z,26.5255,-82.0032,2.18,36.69,1111122 
SCCF RECON,ioos:station:SCCF:13:1,2008-03-07T23:00:00Z,26.5255,-82.0032,2.12,36.69,1111122 
SCCF RECON,ioos:station:SCCF:13:1,2008-03-08T00:00:00Z,26.5255,-82.0032,2.086,36.72,1111122 
SCCF RECON,ioos:station:SCCF:13:1,2008-03-08T01:00:00Z,26.5255,-82.0032,2.134,36.28,1111122 
SCCF RECON,ioos:station:SCCF:13:1,2008-03-08T02:00:00Z,26.5255,-82.0032,2.26,36.06,1111122 
SCCF RECON,ioos:station:SCCF:13:1,2008-03-08T03:00:00Z,26.5255,-82.0032,2.38,36.2,1111122 
SCCF RECON,ioos:station:SCCF:13:1,2008-03-08T04:00:00Z,26.5255,-82.0032,2.459,36.59,1111122 
SCCF RECON,ioos:station:SCCF:13:1,2008-03-08T05:00:00Z,26.5255,-82.0032,2.557,36.77,1111122 
SCCF RECON,ioos:station:SCCF:13:1,2008-03-08T06:00:00Z,26.5255,-82.0032,2.648,36.7,1111122 
SCCF RECON,ioos:station:SCCF:13:1,2008-03-08T07:00:00Z,26.5255,-82.0032,2.67,36.59,1111122 
SCCF RECON,ioos:station:SCCF:13:1,2008-03-08T08:00:00Z,26.5255,-82.0032,2.643,36.68,1111122 
SCCF RECON,ioos:station:SCCF:13:1,2008-03-08T09:00:00Z,26.5255,-82.0032,2.5,36.68,1111122 
SCCF RECON,ioos:station:SCCF:13:1,2008-03-08T10:00:00Z,26.5255,-82.0032,2.41,36.71,1111122 
SCCF RECON,ioos:station:SCCF:13:1,2008-03-08T11:00:00Z,26.5255,-82.0032,2.334,36.59,1111122 
SCCF RECON,ioos:station:SCCF:13:1,2008-03-08T12:00:00Z,26.5255,-82.0032,2.27,36.57,1111122 
SCCF RECON,ioos:station:SCCF:13:1,2008-03-08T13:00:00Z,26.5255,-82.0032,2.212,36.57,1111122 
SCCF RECON,ioos:station:SCCF:13:1,2008-03-08T14:00:00Z,26.5255,-82.0032,2.18,36.39,1111122 
SCCF RECON,ioos:station:SCCF:13:1,2008-03-08T15:00:00Z,26.5255,-82.0032,2.216,36.24,1111122 
SCCF RECON,ioos:station:SCCF:13:1,2008-03-08T16:00:00Z,26.5255,-82.0032,2.3,36.04,1111122 
SCCF RECON,ioos:station:SCCF:13:1,2008-03-08T17:00:00Z,26.5255,-82.0032,2.352,35.82,1111122 
SCCF RECON,ioos:station:SCCF:13:1,2008-03-08T18:00:00Z,26.5255,-82.0032,2.359,35.91,1111122 
SCCF RECON,ioos:station:SCCF:13:1,2008-03-08T19:00:00Z,26.5255,-82.0032,2.283,35.75,1111122 
SCCF RECON,ioos:station:SCCF:13:1,2008-03-08T20:00:00Z,26.5255,-82.0032,2.211,35.37,1111122 
SCCF RECON,ioos:station:SCCF:13:1,2008-03-08T21:00:00Z,26.5255,-82.0032,2.14,34.9,1111122 
SCCF RECON,ioos:station:SCCF:13:1,2008-03-08T22:00:00Z,26.5255,-82.0032,2.069,34.79,1111122 
SCCF RECON,ioos:station:SCCF:13:1,2008-03-08T23:00:00Z,26.5255,-82.0032,2.0,34.29,1111122 
SCCF RECON,ioos:station:SCCF:13:1,2008-03-09T00:00:00Z,26.5255,-82.0032,1.94,34.23,1111122 
SCCF RECON,ioos:station:SCCF:13:1,2008-03-09T01:00:00Z,26.5255,-82.0032,1.89,33.63,1111122 
SCCF RECON,ioos:station:SCCF:13:1,2008-03-09T02:00:00Z,26.5255,-82.0032,1.87,33.26,1111122 
SCCF RECON,ioos:station:SCCF:13:1,2008-03-09T03:00:00Z,26.5255,-82.0032,1.901,33.09,1111122 
SCCF RECON,ioos:station:SCCF:13:1,2008-03-09T04:00:00Z,26.5255,-82.0032,2.07,32.99,1111122 
SCCF RECON,ioos:station:SCCF:13:1,2008-03-09T05:00:00Z,26.5255,-82.0032,2.17,33.32,1111122 
SCCF RECON,ioos:station:SCCF:13:1,2008-03-09T06:00:00Z,26.5255,-82.0032,2.21,34.21,1111122 
SCCF RECON,ioos:station:SCCF:13:1,2008-03-09T07:00:00Z,26.5255,-82.0032,2.23,33.98,1111122 
SCCF RECON,ioos:station:SCCF:13:1,2008-03-09T08:00:00Z,26.5255,-82.0032,2.21,34.59,1111122 
SCCF RECON,ioos:station:SCCF:13:1,2008-03-09T09:00:00Z,26.5255,-82.0032,2.14,35.09,1111122 
SCCF RECON,ioos:station:SCCF:13:1,2008-03-09T10:00:00Z,26.5255,-82.0032,2.07,34.92,1111122 
SCCF RECON,ioos:station:SCCF:13:1,2008-03-09T11:00:00Z,26.5255,-82.0032,2.02,34.2,1111122 
SCCF RECON,ioos:station:SCCF:13:1,2008-03-09T12:00:00Z,26.5255,-82.0032,1.96,33.82,1111122 
SCCF RECON,ioos:station:SCCF:13:1,2008-03-09T13:00:00Z,26.5255,-82.0032,1.91,33.4,1111122 
SCCF RECON,ioos:station:SCCF:13:1,2008-03-09T14:00:00Z,26.5255,-82.0032,1.89,32.86,1111122 
SCCF RECON,ioos:station:SCCF:13:1,2008-03-09T15:00:00Z,26.5255,-82.0032,1.96,32.51,1111122 
SCCF RECON,ioos:station:SCCF:13:1,2008-03-09T16:00:00Z,26.5255,-82.0032,2.11,32.45,1111122 
SCCF RECON,ioos:station:SCCF:13:1,2008-03-09T17:00:00Z,26.5255,-82.0032,2.22,33.33,1111122 
SCCF RECON,ioos:station:SCCF:13:1,2008-03-09T18:00:00Z,26.5255,-82.0032,2.299,33.9,1111122 
SCCF RECON,ioos:station:SCCF:13:1,2008-03-09T19:00:00Z,26.5255,-82.0032,2.336,35.14,1111122 
SCCF RECON,ioos:station:SCCF:13:1,2008-03-09T20:00:00Z,26.5255,-82.0032,2.32,35.63,1111122 
SCCF RECON,ioos:station:SCCF:13:1,2008-03-09T21:00:00Z,26.5255,-82.0032,2.22,35.78,1111122 
SCCF RECON,ioos:station:SCCF:13:1,2008-03-09T22:00:00Z,26.5255,-82.0032,2.11,35.69,1111122 
SCCF RECON,ioos:station:SCCF:13:1,2008-03-09T23:00:00Z,26.5255,-82.0032,2.04,35.66,1111122 
SCCF RECON,ioos:station:SCCF:13:1,2008-03-10T00:00:00Z,26.5255,-82.0032,1.98,34.93,1111122 
SCCF RECON,ioos:station:SCCF:13:1,2008-03-10T01:00:00Z,26.5255,-82.0032,1.91,34.34,1111122 
SCCF RECON,ioos:station:SCCF:13:1,2008-03-10T02:00:00Z,26.5255,-82.0032,1.85,33.55,1111122 
SCCF RECON,ioos:station:SCCF:13:1,2008-03-10T03:00:00Z,26.5255,-82.0032,1.85,33.11,1111122 
SCCF RECON,ioos:station:SCCF:13:1,2008-03-10T04:00:00Z,26.5255,-82.0032,1.95,32.66,1111122 
SCCF RECON,ioos:station:SCCF:13:1,2008-03-10T05:00:00Z,26.5255,-82.0032,2.06,32.54,1111122 
SCCF RECON,ioos:station:SCCF:13:1,2008-03-10T06:00:00Z,26.5255,-82.0032,2.12,33.84,1111122 
SCCF RECON,ioos:station:SCCF:13:1,2008-03-10T07:00:00Z,26.5255,-82.0032,2.16,34.15,1111122 
SCCF RECON,ioos:station:SCCF:13:1,2008-03-10T08:00:00Z,26.5255,-82.0032,2.2,35.02,1111122 
SCCF RECON,ioos:station:SCCF:13:1,2008-03-10T09:00:00Z,26.5255,-82.0032,2.19,35.48,1111122 
SCCF RECON,ioos:station:SCCF:13:1,2008-03-10T10:00:00Z,26.5255,-82.0032,2.11,35.71,1111122 
SCCF RECON,ioos:station:SCCF:13:1,2008-03-10T11:00:00Z,26.5255,-82.0032,2.05,35.48,1111122 
SCCF RECON,ioos:station:SCCF:13:1,2008-03-10T12:00:00Z,26.5255,-82.0032,2.03,35.17,1111122 
SCCF RECON,ioos:station:SCCF:13:1,2008-03-10T13:00:00Z,26.5255,-82.0032,1.99,34.15,1111122 
SCCF RECON,ioos:station:SCCF:13:1,2008-03-10T14:00:00Z,26.5255,-82.0032,1.987,33.72,1111122 
SCCF RECON,ioos:station:SCCF:13:1,2008-03-10T15:00:00Z,26.5255,-82.0032,2.07,32.98,1111122 
SCCF RECON,ioos:station:SCCF:13:1,2008-03-10T16:00:00Z,26.5255,-82.0032,2.17,33.65,1111122 
SCCF RECON,ioos:station:SCCF:13:1,2008-03-10T17:00:00Z,26.5255,-82.0032,2.26,34.88,1111122 
SCCF RECON,ioos:station:SCCF:13:1,2008-03-10T18:00:00Z,26.5255,-82.0032,2.32,35.33,1111122 
SCCF RECON,ioos:station:SCCF:13:1,2008-03-10T19:00:00Z,26.5255,-82.0032,2.396,35.88,1111122 
SCCF RECON,ioos:station:SCCF:13:1,2008-03-10T20:00:00Z,26.5255,-82.0032,2.43,35.98,1111122 
SCCF RECON,ioos:station:SCCF:13:1,2008-03-10T21:00:00Z,26.5255,-82.0032,2.4,36.07,1111122 
SCCF RECON,ioos:station:SCCF:13:1,2008-03-10T22:00:00Z,26.5255,-82.0032,2.27,36.22,1111122 
SCCF RECON,ioos:station:SCCF:13:1,2008-03-10T23:00:00Z,26.5255,-82.0032,2.16,36.17,1111122 
SCCF RECON,ioos:station:SCCF:13:1,2008-03-11T00:00:00Z,26.5255,-82.0032,2.08,36.02,1111122 
SCCF RECON,ioos:station:SCCF:13:1,2008-03-11T01:00:00Z,26.5255,-82.0032,2.01,35.6,1111122 
SCCF RECON,ioos:station:SCCF:13:1,2008-03-11T02:00:00Z,26.5255,-82.0032,1.95,34.86,1111122 
SCCF RECON,ioos:station:SCCF:13:1,2008-03-11T03:00:00Z,26.5255,-82.0032,1.898,34.86,1111122 
SCCF RECON,ioos:station:SCCF:13:1,2008-03-11T04:00:00Z,26.5255,-82.0032,1.9,34.14,1111122 
SCCF RECON,ioos:station:SCCF:13:1,2008-03-11T05:00:00Z,26.5255,-82.0032,2.03,33.79,1111122 
SCCF RECON,ioos:station:SCCF:13:1,2008-03-11T06:00:00Z,26.5255,-82.0032,2.12,33.88,1111122 
SCCF RECON,ioos:station:SCCF:13:1,2008-03-11T07:00:00Z,26.5255,-82.0032,2.155,34.52,1111122 
SCCF RECON,ioos:station:SCCF:13:1,2008-03-11T08:00:00Z,26.5255,-82.0032,2.2,34.92,1111122 
SCCF RECON,ioos:station:SCCF:13:1,2008-03-11T09:00:00Z,26.5255,-82.0032,2.24,35.75,1111122 
SCCF RECON,ioos:station:SCCF:13:1,2008-03-11T10:00:00Z,26.5255,-82.0032,2.24,35.96,1111122 
SCCF RECON,ioos:station:SCCF:13:1,2008-03-11T11:00:00Z,26.5255,-82.0032,2.18,36.14,1111122 
SCCF RECON,ioos:station:SCCF:13:1,2008-03-11T12:00:00Z,26.5255,-82.0032,2.13,35.96,1111122 
SCCF RECON,ioos:station:SCCF:13:1,2008-03-11T13:00:00Z,26.5255,-82.0032,2.1,36.06,1111122 
SCCF RECON,ioos:station:SCCF:13:1,2008-03-11T14:00:00Z,26.5255,-82.0032,2.08,35.44,1111122 
SCCF RECON,ioos:station:SCCF:13:1,2008-03-11T15:00:00Z,26.5255,-82.0032,2.12,35.02,1111122 
SCCF RECON,ioos:station:SCCF:13:1,2008-03-11T16:00:00Z,26.5255,-82.0032,2.21,35.15,1111122 
SCCF RECON,ioos:station:SCCF:13:1,2008-03-11T17:00:00Z,26.5255,-82.0032,2.31,35.86,1111122 
SCCF RECON,ioos:station:SCCF:13:1,2008-03-11T18:00:00Z,26.5255,-82.0032,2.39,36.12,1111122 